Regional Weather Roundup
Issued by NWS Green Bay, WI

Home | Current Version | Previous Version | Graphics & Text | Print | Product List | Glossary Off
Versions: 1 2 3 4 5 6 7 8 9 10 11 12 13 14 15 16 17 18 19 20 21 22 23 24 25 26 27 28 29 30 31 32 33 34 35 36 37 38 39 40 41 42 43 44 45 46 47 48 49 50

000
ASUS43 KGRB 241511
RWRGRB

NORTH-CENTRAL AND NORTHEAST WISCONSIN REGIONAL WEATHER ROUNDUP
NATIONAL WEATHER SERVICE GREEN BAY WI
900 AM CST FRI NOV 24 2017

WIZ005-009-010>012-018-019-241600-
NORTH CENTRAL WISCONSIN

CITY           SKY/WX    TMP DP  RH WIND       PRES   REMARKS
IRONWOOD       CLOUDY    45  35  68 S13       29.26F
MANITOWISH WTR SUNNY     42  35  76 S8        29.32F
ARBOR VITAE    CLOUDY    42  35  74 S9        29.33F
EAGLE RIVER    CLOUDY    44  32  63 SW10G16   29.33F
LAND O LAKES   SUNNY     44  33  64 SW10G21   29.33F
RHINELANDER    CLOUDY    45  35  68 SW15G25   29.36F
PHILLIPS       SUNNY     45  36  70 SW10      29.33F
ANTIGO         CLOUDY    43  34  69 SW12      29.41F
TOMAHAWK       CLOUDY    42  33  70 S5        29.37F
MERRILL        SUNNY     45  34  65 SW12G18   29.41F
$$

WIZ013-073-241600-
NORTHEAST WISCONSIN

CITY           SKY/WX    TMP DP  RH WIND       PRES   REMARKS
IRON MOUNTAIN  CLOUDY    43  30  60 S5        29.34F
MARINETTE      CLOUDY    46  32  58 SW14G20   29.43F
OCONTO         MOSUNNY   46  32  58 SW14G24   29.45F
$$

WIZ017-030-035>037-045-241600-
CENTRAL WISCONSIN

CITY           SKY/WX    TMP DP  RH WIND       PRES   REMARKS
MEDFORD        MOSUNNY   43  34  69 S14       29.39F
WAUSAU         CLOUDY    44  33  65 VRB6      29.41F
MOSINEE        PTSUNNY   45  36  70 S10       29.44F
MARSHFIELD     SUNNY     47  34  60 S14       29.41F
WISC RAPIDS    MOSUNNY   47  34  60 SW12      29.45F
STEVENS POINT  CLOUDY    46  33  60 S10G17    29.44F
WAUPACA        MOSUNNY   49  33  54 S9        29.48F
SHAWANO        CLOUDY    46  32  58 SW5       29.45F
CLINTONVILLE   CLOUDY    46  32  57 SW13      29.46F
WAUTOMA        CLOUDY    44  32  62 S7        29.50F
$$

WIZ038-039-048-051-241600-
FOX VALLEY

CITY           SKY/WX    TMP DP  RH WIND       PRES   REMARKS
NWS GREEN BAY  MOSUNNY   45  35  68 SW14G21   29.48F
APPLETON       PTSUNNY   45  28  53 SW22      29.48F
OSHKOSH        MOSUNNY   47  33  58 S20G28    29.49F
FOND DU LAC    MOSUNNY   47  31  53 S16G26    29.52F
$$

WIZ022-050-052-241600-
EAST CENTRAL WISCONSIN

CITY           SKY/WX    TMP DP  RH WIND       PRES   REMARKS
EPHRAIM        FAIR      44  32  62 S8        29.43F
WASHINGTON ISL FAIR      42  35  76 S14       29.42F
STURGEON BAY   MOSUNNY   50  34  54 SW17G26   29.45F
MANITOWOC      MOSUNNY   54  34  46 SW14      29.51F
SHEBOYGAN      MOSUNNY   52  34  50 SW17      29.54F
$$

LMZ563-521-522-541>543-241600-
LAKESHORE

STATION/POSITION TIME  TEMP    WIND        PRES    VSBY  WAVE
                       AIR SEA DIR/SP/G                  HT/PER
                 (UTC) (F)     (DEG/KT/KT) (MB)    (MI)  (FT/S)
SHEBOYGAN LKSHOR 1500   43     180/ 22/ 23 1000.6F
KEWAUNEE LKSHORE 1442   42     180/ 10/ 12  998.4F
NORTHPORT PIER   1440   42     180/  5/ 12  997.3F
N MID LAKE BUOY  1450   47 47  200/ 27/ 33  997.3F         9/ 7
SISTER BAY LKSHO 1504   45     170/ 10/ 13   N/A
MENOMINEE LKSHOR 1442   44     190/ 13/ 20  996.7F
$$



USA.gov is the U.S. government's official web portal to all federal, state and local government web resources and services.